CZ-6A DEB, 54939

Orbit data source: Space-Track

CZ-6A DEB, 54939 is space debris in SSO originally from a launch on Fri, 11 Nov 2022 UTC launched from the Taiyaun Space Center, China (TSC). Debris objects in space refer to the collection of defunct objects orbiting the Earth. Examples of debris include non-operational satellites, rocket bodies, and fragments generated from explosions, collisions, or faulty payload assembly.

Loading next visibility...
Identifier
54939, 2022-151SC
Orbit
SSO
Country
Flag of CNCN / PRC
Related business
Manufacturer
SAST
Mission
Spacecraft
Bus & Motor
Unknown
Mass
Unknown
Launch date (UTC)
2022-11-11 (4 years ago)
Launch vehicle
Unknown
Launch site
Taiyaun Space Center, China (TSC)
Object type
Payload
Rocket body
Debris
Shape & HBR
Unknown shape, 1.1 m
Radar Cross Section
Medium (>0.1 m² and <1 m²)

Expand to show TLE details & history
Last TLE update: 3 days ago

TLE from 3 days ago
0 CZ-6A DEB
1 54939U 22151SC  26170.72627599  .00002844  00000-0  89065-3 0  9993
2 54939  99.0585 263.8080 0069852  98.9102 262.0001 14.40090345187810
Epoch: 2026-06-19T17:25Z
TLE epoch observation values (Epoch: 2026-06-19T17:25:50.245Z)
Latitude
0.00003°
Longitude
94.39753°
Altitude
768.411 km
Speed
7.466 km/s
True Right ascension
17h 35m 13s
True Declination
0° 00' 00"
Sunlit
Object was in full shadow at epoch
Visualization orbit readout
Latitude
Unknown
Longitude
Unknown
Altitude
Unknown
Speed
Unknown
Apparent Right ascension
Unknown
Apparent Declination
Unknown
Sunlit
N/A
Visualization observer readout
Local Sidereal Time
21:28:02
Azimuth
Unknown
Elevation
Unknown
Doppler factor
Unknown
Orbital elements
Apogee altitude
805.178 km
Perigee altitude
705.52 km
Semi-major axis
7,133.486 km
Eccentricity
0.00699
Inclination
99.0585°
RAAN
263.808°
Arg. of periapsis
98.9102°
True anomaly
261.20843°
Mean anomaly
262.0001°
Eccentric anomaly
261.60417°
Mean motion
3.60239 °/min
Orbital period
99.93 mins
BSTAR
0.00089065
Loading maneuver chart data...
Computing Atmospheric mass density...
Loading historical data...
Loading historical data...
Loading historical data...
Loading historical data...
Loading historical data...
Loading historical data...
Loading historical data...

Documentation

Showing up to 5 results
|